EW2493 Weather Reports


Display with metric or nautical units.
time (UTC)temp
F
wind
direction
speed
MPH
gust
MPH
rain 1hr
in
rain 24hr
in
rain mn
in
humidity
%
barometer
mb
20260505234505 44 332 10.0 14.0 0.00 0.00 0.00 46 1008.1
20260505233006 44 329 10.0 14.0 0.00 0.00 0.00 45 1008.2
20260505231504 44 325 10.0 14.0 0.00 0.00 0.00 44 1008.0
20260505230105 45 306 10.0 17.0 0.00 0.00 0.00 44 1008.0
20260505224700 45 318 10.0 15.0 0.00 0.00 0.00 43 1008.0
20260505223059 45 322 9.0 13.0 0.00 0.00 0.00 42 1008.0
20260505221601 45 302 10.0 14.0 0.00 0.00 0.00 43 1007.9
20260505220105 45 329 10.0 14.0 0.00 0.00 0.00 43 1008.0
20260505214605 45 311 12.0 17.0 0.00 0.00 0.00 42 1008.0
20260505213103 45 299 8.0 14.0 0.00 0.00 0.00 42 1008.0
20260505211602 45 319 9.0 16.0 0.00 0.00 0.00 42 1008.1
20260505210054 45 303 10.0 17.0 0.00 0.00 0.00 42 1008.1
20260505204555 46 322 9.0 18.0 0.00 0.00 0.00 41 1008.0
20260505203054 45 336 11.0 17.0 0.00 0.00 0.00 41 1007.9
20260505201551 45 295 10.0 20.0 0.00 0.00 0.00 41 1007.9
20260505200050 45 312 10.0 17.0 0.00 0.00 0.00 41 1007.9
20260505194550 45 319 11.0 17.0 0.00 0.00 0.00 40 1007.8
20260505193052 45 322 7.0 19.0 0.00 0.00 0.00 41 1007.8
20260505191556 45 320 11.0 18.0 0.00 0.00 0.00 40 1007.8
20260505190050 45 287 9.0 19.0 0.00 0.00 0.00 41 1007.7
20260505184545 44 298 11.0 18.0 0.00 0.00 0.00 42 1007.7
20260505183045 44 315 8.0 14.0 0.00 0.00 0.00 43 1007.8
20260505181543 44 308 11.0 19.0 0.00 0.00 0.00 44 1007.9
20260505180051 44 334 11.0 20.0 0.00 0.00 0.00 44 1007.6
20260505174557 44 304 12.0 20.0 0.00 0.00 0.00 45 1007.6
20260505173039 44 329 12.0 16.0 0.00 0.00 0.00 45 1007.5
20260505171540 43 321 11.0 19.0 0.00 0.00 0.00 44 1007.5
20260505170046 43 317 13.0 20.0 0.00 0.00 0.00 45 1007.5
20260505164536 44 338 14.0 23.0 0.00 0.00 0.00 43 1007.2
20260505161533 43 321 11.0 22.0 0.00 0.00 0.00 46 1007.2
20260505153035 44 302 13.0 21.0 0.00 0.00 0.00 46 1007.0
20260505151530 43 309 14.0 20.0 0.00 0.00 0.00 46 1006.9
20260505124554 34 301 7.0 11.0 0.00 0.00 0.00 79 1005.8
20260505123108 32 296 6.0 10.0 0.00 0.00 0.00 81 1005.8
20260505121548 31 301 5.0 8.0 0.00 0.00 0.00 84 1005.6
20260505120047 29 288 4.0 7.0 0.00 0.00 0.00 85 1005.4
20260505114604 28 289 4.0 7.0 0.00 0.00 0.00 85 1005.3
20260505113042 27 282 3.0 6.0 0.00 0.00 0.00 85 1005.2
20260505111556 28 283 3.0 5.0 0.00 0.00 0.00 85 1005.2
20260505101536 27 280 3.0 6.0 0.00 0.00 0.00 85 1004.8
20260505100036 28 271 3.0 5.0 0.00 0.00 0.00 85 1004.8
20260505094536 28 284 4.0 6.0 0.00 0.00 0.00 85 1004.8
20260505093031 28 287 4.0 7.0 0.00 0.00 0.00 85 1004.6
20260505091630 28 294 4.0 7.0 0.00 0.00 0.00 84 1004.6
20260505090033 28 282 3.0 6.0 0.00 0.00 0.00 84 1004.6
20260505084526 28 282 3.0 5.0 0.00 0.00 0.00 84 1004.5
20260505083030 28 282 3.0 6.0 0.00 0.00 0.00 85 1004.3
20260505081531 27 275 4.0 6.0 0.00 0.00 0.00 85 1004.4
20260505080033 27 277 3.0 6.0 0.00 0.00 0.00 84 1004.2
20260505074519 28 277 2.0 5.0 0.00 0.00 0.00 84 1004.2
20260505073017 28 276 2.0 5.0 0.00 0.00 0.00 83 1004.1
20260505071513 29 269 3.0 5.0 0.00 0.00 0.00 83 1004.0
20260505070012 28 275 3.0 4.0 0.00 0.00 0.00 82 1004.0
20260505064508 29 270 2.0 4.0 0.00 0.00 0.00 80 1004.0
20260505063005 30 273 2.0 4.0 0.00 0.00 0.00 80 1003.9
20260505061503 30 285 3.0 6.0 0.00 0.00 0.00 79 1003.8
20260505060103 31 287 3.0 7.0 0.00 0.00 0.00 78 1003.6
20260505054604 31 287 2.0 4.0 0.00 0.00 0.00 77 1003.6
20260505053111 31 284 3.0 6.0 0.00 0.00 0.00 77 1003.5
20260505051553 31 279 2.0 5.0 0.00 0.00 0.00 76 1003.4
20260505041602 33 277 2.0 5.0 0.00 0.00 0.00 72 1003.0
20260505040040 34 273 2.0 4.0 0.00 0.00 0.00 70 1002.9
20260505034640 34 286 1.0 3.0 0.00 0.00 0.00 69 1002.8
20260505033037 35 290 1.0 3.0 0.00 0.00 0.00 67 1002.7
20260505031531 37 295 1.0 4.0 0.00 0.00 0.00 63 1002.6
20260505024537 41 311 5.0 7.0 0.00 0.00 0.00 57 1002.3
20260505023021 42 315 4.0 7.0 0.00 0.00 0.00 55 1002.1
20260505021518 44 313 5.0 9.0 0.00 0.00 0.00 53 1001.7
20260505020017 46 315 7.0 12.0 0.00 0.00 0.00 51 1001.5
20260505014514 47 327 7.0 14.0 0.00 0.00 0.00 50 1001.4
20260505013020 48 334 8.0 14.0 0.00 0.00 0.00 49 1001.2
20260505011511 48 319 10.0 16.0 0.00 0.00 0.00 48 1000.9
20260505010009 49 317 13.0 19.0 0.00 0.00 0.00 46 1000.6
20260505004505 49 307 13.0 20.0 0.00 0.00 0.00 46 1000.5
20260505003005 50 309 16.0 25.0 0.00 0.00 0.00 45 1000.4
20260505001504 50 303 11.0 20.0 0.00 0.00 0.00 46 1000.3
20260505000005 50 313 12.0 22.0 0.00 0.00 0.00 44 1000.2